Year,Month,Day,Hour,Minute,Value (Times are PST for temperature in C)
2011,08,16,00,00,12.30
2011,08,16,00,01,12.30
2011,08,16,00,02,12.30
2011,08,16,00,03,12.30
2011,08,16,00,04,12.30
2011,08,16,00,05,12.20
2011,08,16,00,06,12.20
2011,08,16,00,07,12.20
2011,08,16,00,08,12.10
2011,08,16,00,09,12.10
2011,08,16,00,10,12.10
2011,08,16,00,11,12.10
2011,08,16,00,12,12.10
2011,08,16,00,13,12.10
2011,08,16,00,14,12.10
2011,08,16,00,15,12.10
2011,08,16,00,16,12.10
2011,08,16,00,17,12.10
2011,08,16,00,18,12.10
2011,08,16,00,19,12.10
2011,08,16,00,20,12.10
2011,08,16,00,21,12.00
2011,08,16,00,22,12.00
2011,08,16,00,23,12.00
2011,08,16,00,24,12.00
2011,08,16,00,25,11.90
2011,08,16,00,26,11.90
2011,08,16,00,27,11.90
2011,08,16,00,28,11.90
2011,08,16,00,29,11.90
2011,08,16,00,30,11.80
2011,08,16,00,31,11.80
2011,08,16,00,32,11.80
2011,08,16,00,33,11.80
2011,08,16,00,34,11.80
2011,08,16,00,35,11.80
2011,08,16,00,36,11.80
2011,08,16,00,37,11.80
2011,08,16,00,38,11.80
2011,08,16,00,39,11.70
2011,08,16,00,40,11.70
2011,08,16,00,41,11.70
2011,08,16,00,42,11.60
2011,08,16,00,43,11.60
2011,08,16,00,44,11.60
2011,08,16,00,45,11.60
2011,08,16,00,46,11.60
2011,08,16,00,47,11.60
2011,08,16,00,48,11.60
2011,08,16,00,49,11.60
2011,08,16,00,50,11.60
2011,08,16,00,51,11.70
2011,08,16,00,52,11.70
2011,08,16,00,53,11.70
2011,08,16,00,54,11.80
2011,08,16,00,55,11.80
2011,08,16,00,56,11.80
2011,08,16,00,57,11.80
2011,08,16,00,58,11.80
2011,08,16,00,59,11.80
2011,08,16,01,00,11.70
2011,08,16,01,01,11.70
2011,08,16,01,02,11.70
2011,08,16,01,03,11.70
2011,08,16,01,04,11.70
2011,08,16,01,05,11.70
2011,08,16,01,06,11.60
2011,08,16,01,07,11.60
2011,08,16,01,08,11.60
2011,08,16,01,09,11.60
2011,08,16,01,10,11.50
2011,08,16,01,11,11.40
2011,08,16,01,12,11.40
2011,08,16,01,13,11.40
2011,08,16,01,14,11.40
2011,08,16,01,15,11.30
2011,08,16,01,16,11.30
2011,08,16,01,17,11.20
2011,08,16,01,18,11.20
2011,08,16,01,19,11.20
2011,08,16,01,20,11.10
2011,08,16,01,21,11.10
2011,08,16,01,22,11.10
2011,08,16,01,23,11.10
2011,08,16,01,24,11.10
2011,08,16,01,25,11.00
2011,08,16,01,26,10.90
2011,08,16,01,27,10.90
2011,08,16,01,28,10.90
2011,08,16,01,29,10.90
2011,08,16,01,30,10.90
2011,08,16,01,31,10.90
2011,08,16,01,32,10.90
2011,08,16,01,33,10.90
2011,08,16,01,34,10.90
2011,08,16,01,35,10.90
2011,08,16,01,36,10.80
2011,08,16,01,37,10.80
2011,08,16,01,38,10.80
2011,08,16,01,39,10.80
2011,08,16,01,40,10.80
2011,08,16,01,41,10.70
2011,08,16,01,42,10.70
2011,08,16,01,43,10.70
2011,08,16,01,44,10.70
2011,08,16,01,45,10.60
2011,08,16,01,46,10.60
2011,08,16,01,47,10.60
2011,08,16,01,48,10.60
2011,08,16,01,49,10.60
2011,08,16,01,50,10.60
2011,08,16,01,51,10.60
2011,08,16,01,52,10.60
2011,08,16,01,53,10.60
2011,08,16,01,54,10.60
2011,08,16,01,55,10.60
2011,08,16,01,56,10.60
2011,08,16,01,57,10.60
2011,08,16,01,58,10.60
2011,08,16,01,59,10.60
2011,08,16,02,00,10.60
2011,08,16,02,01,10.60
2011,08,16,02,02,10.60
2011,08,16,02,03,10.50
2011,08,16,02,04,10.40
2011,08,16,02,05,10.40
2011,08,16,02,06,10.60
2011,08,16,02,07,10.60
2011,08,16,02,08,10.60
2011,08,16,02,09,10.60
2011,08,16,02,10,10.60
2011,08,16,02,11,10.60
2011,08,16,02,12,10.60
2011,08,16,02,13,10.60
2011,08,16,02,14,10.60
2011,08,16,02,15,10.50
2011,08,16,02,16,10.40
2011,08,16,02,17,10.40
2011,08,16,02,18,10.40
2011,08,16,02,19,10.40
2011,08,16,02,20,10.40
2011,08,16,02,21,10.40
2011,08,16,02,22,10.40
2011,08,16,02,23,10.40
2011,08,16,02,24,10.40
2011,08,16,02,25,10.40
2011,08,16,02,26,10.40
2011,08,16,02,27,10.40
2011,08,16,02,28,10.40
2011,08,16,02,29,10.40
2011,08,16,02,30,10.40
2011,08,16,02,31,10.40
2011,08,16,02,32,10.40
2011,08,16,02,33,10.40
2011,08,16,02,34,10.40
2011,08,16,02,35,10.30
2011,08,16,02,36,10.30
2011,08,16,02,37,10.30
2011,08,16,02,38,10.30
2011,08,16,02,39,10.30
2011,08,16,02,40,10.30
2011,08,16,02,41,10.30
2011,08,16,02,42,10.30
2011,08,16,02,43,10.30
2011,08,16,02,44,10.30
2011,08,16,02,45,10.20
2011,08,16,02,46,10.20
2011,08,16,02,47,10.20
2011,08,16,02,48,10.20
2011,08,16,02,49,10.20
2011,08,16,02,50,10.10
2011,08,16,02,51,10.10
2011,08,16,02,52,10.10
2011,08,16,02,53,10.10
2011,08,16,02,54,10.10
2011,08,16,02,55,10.10
2011,08,16,02,56,10.10
2011,08,16,02,57,10.10
2011,08,16,02,58,10.10
2011,08,16,02,59,10.10
2011,08,16,03,00,10.00
2011,08,16,03,01,9.90
2011,08,16,03,02,9.90
2011,08,16,03,03,9.90
2011,08,16,03,04,9.90
2011,08,16,03,05,9.90
2011,08,16,03,06,9.90
2011,08,16,03,07,9.90
2011,08,16,03,08,9.90
2011,08,16,03,09,9.90
2011,08,16,03,10,9.90
2011,08,16,03,11,9.90
2011,08,16,03,12,9.90
2011,08,16,03,13,9.90
2011,08,16,03,14,9.90
2011,08,16,03,15,9.90
2011,08,16,03,16,9.90
2011,08,16,03,17,9.80
2011,08,16,03,18,9.80
2011,08,16,03,19,9.80
2011,08,16,03,20,9.80
2011,08,16,03,21,9.70
2011,08,16,03,22,9.70
2011,08,16,03,23,9.70
2011,08,16,03,24,9.70
2011,08,16,03,25,9.70
2011,08,16,03,26,9.70
2011,08,16,03,27,9.70
2011,08,16,03,28,9.70
2011,08,16,03,29,9.70
2011,08,16,03,30,9.70
2011,08,16,03,31,9.70
2011,08,16,03,32,9.70
2011,08,16,03,33,9.70
2011,08,16,03,34,9.70
2011,08,16,03,35,9.70
2011,08,16,03,36,9.60
2011,08,16,03,37,9.60
2011,08,16,03,38,9.60
2011,08,16,03,39,9.60
2011,08,16,03,40,9.60
2011,08,16,03,41,9.50
2011,08,16,03,42,9.50
2011,08,16,03,43,9.50
2011,08,16,03,44,9.50
2011,08,16,03,45,9.50
2011,08,16,03,46,9.50
2011,08,16,03,47,9.50
2011,08,16,03,48,9.40
2011,08,16,03,49,9.40
2011,08,16,03,50,9.40
2011,08,16,03,51,9.40
2011,08,16,03,52,9.40
2011,08,16,03,53,9.30
2011,08,16,03,54,9.30
2011,08,16,03,55,9.30
2011,08,16,03,56,9.30
2011,08,16,03,57,9.30
2011,08,16,03,58,9.20
2011,08,16,03,59,9.20
2011,08,16,04,00,9.20
2011,08,16,04,01,9.20
2011,08,16,04,02,9.20
2011,08,16,04,03,9.10
2011,08,16,04,04,9.10
2011,08,16,04,05,9.10
2011,08,16,04,06,9.10
2011,08,16,04,07,9.10
2011,08,16,04,08,9.10
2011,08,16,04,09,9.10
2011,08,16,04,10,9.10
2011,08,16,04,11,9.10
2011,08,16,04,12,9.20
2011,08,16,04,13,9.20
2011,08,16,04,14,9.10
2011,08,16,04,15,9.10
2011,08,16,04,16,9.10
2011,08,16,04,17,9.10
2011,08,16,04,18,9.10
2011,08,16,04,19,9.10
2011,08,16,04,20,9.00
2011,08,16,04,21,9.00
2011,08,16,04,22,9.00
2011,08,16,04,23,9.00
2011,08,16,04,24,9.00
2011,08,16,04,25,8.90
2011,08,16,04,26,8.90
2011,08,16,04,27,8.90
2011,08,16,04,28,8.90
2011,08,16,04,29,8.90
2011,08,16,04,30,8.90
2011,08,16,04,31,8.90
2011,08,16,04,32,9.00
2011,08,16,04,33,8.90
2011,08,16,04,34,8.90
2011,08,16,04,35,8.90
2011,08,16,04,36,8.90
2011,08,16,04,37,8.90
2011,08,16,04,38,8.90
2011,08,16,04,39,8.90
2011,08,16,04,40,8.90
2011,08,16,04,41,8.90
2011,08,16,04,42,8.90
2011,08,16,04,43,8.90
2011,08,16,04,44,8.90
2011,08,16,04,45,8.90
2011,08,16,04,46,8.80
2011,08,16,04,47,8.80
2011,08,16,04,48,8.80
2011,08,16,04,49,8.70
2011,08,16,04,50,8.70
2011,08,16,04,51,8.70
2011,08,16,04,52,8.70
2011,08,16,04,53,8.70
2011,08,16,04,54,8.70
2011,08,16,04,55,8.70
2011,08,16,04,56,8.70
2011,08,16,04,57,8.70
2011,08,16,04,58,8.70
2011,08,16,04,59,8.70
2011,08,16,05,00,8.70
2011,08,16,05,01,8.70
2011,08,16,05,02,8.70
2011,08,16,05,03,8.60
2011,08,16,05,04,8.60
2011,08,16,05,05,8.60
2011,08,16,05,06,8.60
2011,08,16,05,07,8.60
2011,08,16,05,08,8.60
2011,08,16,05,09,8.60
2011,08,16,05,10,8.60
2011,08,16,05,11,8.60
2011,08,16,05,12,8.60
2011,08,16,05,13,8.60
2011,08,16,05,14,8.60
2011,08,16,05,15,8.60
2011,08,16,05,16,8.60
2011,08,16,05,17,8.60
2011,08,16,05,18,8.50
2011,08,16,05,19,8.50
2011,08,16,05,20,8.50
2011,08,16,05,21,8.50
2011,08,16,05,22,8.50
2011,08,16,05,23,8.50
2011,08,16,05,24,8.50
2011,08,16,05,25,8.50
2011,08,16,05,26,8.50
2011,08,16,05,27,8.50
2011,08,16,05,28,8.60
2011,08,16,05,29,8.60
2011,08,16,05,30,8.60
2011,08,16,05,31,8.60
2011,08,16,05,32,8.60
2011,08,16,05,33,8.60
2011,08,16,05,34,8.60
2011,08,16,05,35,8.60
2011,08,16,05,36,8.60
2011,08,16,05,37,8.60
2011,08,16,05,38,8.60
2011,08,16,05,39,8.60
2011,08,16,05,40,8.60
2011,08,16,05,41,8.60
2011,08,16,05,42,8.60
2011,08,16,05,43,8.60
2011,08,16,05,44,8.60
2011,08,16,05,45,8.50
2011,08,16,05,46,8.50
2011,08,16,05,47,8.50
2011,08,16,05,48,8.50
2011,08,16,05,49,8.50
2011,08,16,05,50,8.50
2011,08,16,05,51,8.50
2011,08,16,05,52,8.50
2011,08,16,05,53,8.50
2011,08,16,05,54,8.50
2011,08,16,05,55,8.50
2011,08,16,05,56,8.50
2011,08,16,05,57,8.60
2011,08,16,05,58,8.60
2011,08,16,05,59,8.60
2011,08,16,06,00,8.60
2011,08,16,06,01,8.60
2011,08,16,06,02,8.50
2011,08,16,06,03,8.50
2011,08,16,06,04,8.50
2011,08,16,06,05,8.50
2011,08,16,06,06,8.50
2011,08,16,06,07,8.50
2011,08,16,06,08,8.50
2011,08,16,06,09,8.50
2011,08,16,06,10,8.60
2011,08,16,06,11,8.60
2011,08,16,06,12,8.60
2011,08,16,06,13,8.60
2011,08,16,06,14,8.60
2011,08,16,06,15,8.60
2011,08,16,06,16,8.60
2011,08,16,06,17,8.60
2011,08,16,06,18,8.60
2011,08,16,06,19,8.60
2011,08,16,06,20,8.60
2011,08,16,06,21,8.60
2011,08,16,06,22,8.60
2011,08,16,06,23,8.60
2011,08,16,06,24,8.60
2011,08,16,06,25,8.60
2011,08,16,06,26,8.60
2011,08,16,06,27,8.60
2011,08,16,06,28,8.60
2011,08,16,06,29,8.60
2011,08,16,06,30,8.70
2011,08,16,06,31,8.70
2011,08,16,06,32,8.70
2011,08,16,06,33,8.70
2011,08,16,06,34,8.70
2011,08,16,06,35,8.70
2011,08,16,06,36,8.70
2011,08,16,06,37,8.80
2011,08,16,06,38,8.80
2011,08,16,06,39,8.80
2011,08,16,06,40,8.80
2011,08,16,06,41,8.90
2011,08,16,06,42,8.90
2011,08,16,06,43,8.90
2011,08,16,06,44,8.90
2011,08,16,06,45,9.00
2011,08,16,06,46,9.00
2011,08,16,06,47,9.10
2011,08,16,06,48,9.20
2011,08,16,06,49,9.20
2011,08,16,06,50,9.30
2011,08,16,06,51,9.40
2011,08,16,06,52,9.50
2011,08,16,06,53,9.60
2011,08,16,06,54,9.60
2011,08,16,06,55,9.70
2011,08,16,06,56,9.70
2011,08,16,06,57,9.70
2011,08,16,06,58,9.70
2011,08,16,06,59,9.70
2011,08,16,07,00,9.70
2011,08,16,07,01,9.70
2011,08,16,07,02,9.80
2011,08,16,07,03,9.80
2011,08,16,07,04,9.80
2011,08,16,07,05,9.80
2011,08,16,07,06,9.80
2011,08,16,07,07,9.90
2011,08,16,07,08,9.90
2011,08,16,07,09,10.00
2011,08,16,07,10,10.10
2011,08,16,07,11,10.10
2011,08,16,07,12,10.20
2011,08,16,07,13,10.30
2011,08,16,07,14,10.40
2011,08,16,07,15,10.50
2011,08,16,07,16,10.60
2011,08,16,07,17,10.70
2011,08,16,07,18,10.90
2011,08,16,07,19,10.90
2011,08,16,07,20,11.10
2011,08,16,07,21,11.10
2011,08,16,07,22,11.20
2011,08,16,07,23,11.30
2011,08,16,07,24,11.30
2011,08,16,07,25,11.40
2011,08,16,07,26,11.40
2011,08,16,07,27,11.50
2011,08,16,07,28,11.60
2011,08,16,07,29,11.60
2011,08,16,07,30,11.70
2011,08,16,07,31,11.80
2011,08,16,07,32,11.80
2011,08,16,07,33,11.80
2011,08,16,07,34,11.90
2011,08,16,07,35,12.00
2011,08,16,07,36,12.10
2011,08,16,07,37,12.10
2011,08,16,07,38,12.20
2011,08,16,07,39,12.30
2011,08,16,07,40,12.30
2011,08,16,07,41,12.40
2011,08,16,07,42,12.50
2011,08,16,07,43,12.60
2011,08,16,07,44,12.60
2011,08,16,07,45,12.70
2011,08,16,07,46,12.80
2011,08,16,07,47,12.80
2011,08,16,07,48,12.90
2011,08,16,07,49,12.90
2011,08,16,07,50,13.00
2011,08,16,07,51,13.00
2011,08,16,07,52,13.10
2011,08,16,07,53,13.10
2011,08,16,07,54,13.20
2011,08,16,07,55,13.20
2011,08,16,07,56,13.30
2011,08,16,07,57,13.40
2011,08,16,07,58,13.50
2011,08,16,07,59,13.50
2011,08,16,08,00,13.60
2011,08,16,08,01,13.60
2011,08,16,08,02,13.70
2011,08,16,08,03,13.70
2011,08,16,08,04,13.80
2011,08,16,08,05,13.80
2011,08,16,08,06,13.90
2011,08,16,08,07,13.90
2011,08,16,08,08,13.90
2011,08,16,08,09,14.00
2011,08,16,08,10,14.00
2011,08,16,08,11,14.10
2011,08,16,08,12,14.10
2011,08,16,08,13,14.20
2011,08,16,08,14,14.20
2011,08,16,08,15,14.30
2011,08,16,08,16,14.40
2011,08,16,08,17,14.50
2011,08,16,08,18,14.50
2011,08,16,08,19,14.60
2011,08,16,08,20,14.60
2011,08,16,08,21,14.70
2011,08,16,08,22,14.80
2011,08,16,08,23,14.80
2011,08,16,08,24,14.90
2011,08,16,08,25,14.90
2011,08,16,08,26,15.00
2011,08,16,08,27,15.10
2011,08,16,08,28,15.10
2011,08,16,08,29,15.10
2011,08,16,08,30,15.20
2011,08,16,08,31,15.20
2011,08,16,08,32,15.30
2011,08,16,08,33,15.30
2011,08,16,08,34,15.30
2011,08,16,08,35,15.40
2011,08,16,08,36,15.50
2011,08,16,08,37,15.50
2011,08,16,08,38,15.60
2011,08,16,08,39,15.70
2011,08,16,08,40,15.70
2011,08,16,08,41,15.70
2011,08,16,08,42,15.70
2011,08,16,08,43,15.60
2011,08,16,08,44,15.60
2011,08,16,08,45,15.70
2011,08,16,08,46,15.70
2011,08,16,08,47,15.60
2011,08,16,08,48,15.60
2011,08,16,08,49,15.60
2011,08,16,08,50,15.70
2011,08,16,08,51,15.70
2011,08,16,08,52,15.70
2011,08,16,08,53,15.80
2011,08,16,08,54,15.80
2011,08,16,08,55,15.80
2011,08,16,08,56,15.80
2011,08,16,08,57,15.80
2011,08,16,08,58,15.80
2011,08,16,08,59,15.80
2011,08,16,09,00,15.70
2011,08,16,09,01,15.70
2011,08,16,09,02,15.60
2011,08,16,09,03,15.60
2011,08,16,09,04,15.70
2011,08,16,09,05,15.70
2011,08,16,09,06,15.70
2011,08,16,09,07,15.70
2011,08,16,09,08,15.70
2011,08,16,09,09,15.80
2011,08,16,09,10,15.80
2011,08,16,09,11,15.90
2011,08,16,09,12,16.00
2011,08,16,09,13,16.10
2011,08,16,09,14,16.10
2011,08,16,09,15,16.20
2011,08,16,09,16,16.20
2011,08,16,09,17,16.30
2011,08,16,09,18,16.40
2011,08,16,09,19,16.50
2011,08,16,09,20,16.60
2011,08,16,09,21,16.60
2011,08,16,09,22,16.70
2011,08,16,09,23,16.70
2011,08,16,09,24,16.70
2011,08,16,09,25,16.70
2011,08,16,09,26,16.70
2011,08,16,09,27,16.70
2011,08,16,09,28,16.70
2011,08,16,09,29,16.70
2011,08,16,09,30,16.70
2011,08,16,09,31,16.70
2011,08,16,09,32,16.70
2011,08,16,09,33,16.70
2011,08,16,09,34,16.70
2011,08,16,09,35,16.70
2011,08,16,09,36,16.80
2011,08,16,09,37,16.80
2011,08,16,09,38,16.90
2011,08,16,09,39,16.90
2011,08,16,09,40,16.90
2011,08,16,09,41,16.90
2011,08,16,09,42,16.90
2011,08,16,09,43,16.90
2011,08,16,09,44,16.90
2011,08,16,09,45,16.80
2011,08,16,09,46,16.40
2011,08,16,09,47,16.40
2011,08,16,09,48,16.40
2011,08,16,09,49,16.40
2011,08,16,09,50,16.40
2011,08,16,09,51,16.40
2011,08,16,09,52,16.40
2011,08,16,09,53,16.40
2011,08,16,09,54,16.30
2011,08,16,09,55,16.30
2011,08,16,09,56,16.40
2011,08,16,09,57,16.30
2011,08,16,09,58,16.40
2011,08,16,09,59,16.40
2011,08,16,10,00,16.50
2011,08,16,10,01,16.60
2011,08,16,10,02,16.70
2011,08,16,10,03,16.70
2011,08,16,10,04,16.70
2011,08,16,10,05,16.80
2011,08,16,10,06,16.70
2011,08,16,10,07,16.70
2011,08,16,10,08,16.70
2011,08,16,10,09,16.80
2011,08,16,10,10,16.80
2011,08,16,10,11,16.90
2011,08,16,10,12,16.90
2011,08,16,10,13,16.90
2011,08,16,10,14,16.90
2011,08,16,10,15,17.00
2011,08,16,10,16,17.00
2011,08,16,10,17,16.90
2011,08,16,10,18,16.90
2011,08,16,10,19,16.90
2011,08,16,10,20,16.90
2011,08,16,10,21,16.80
2011,08,16,10,22,16.80
2011,08,16,10,23,16.80
2011,08,16,10,24,16.80
2011,08,16,10,25,16.90
2011,08,16,10,26,16.90
2011,08,16,10,27,16.90
2011,08,16,10,28,16.90
2011,08,16,10,29,16.90
2011,08,16,10,30,16.90
2011,08,16,10,31,17.00
2011,08,16,10,32,17.00
2011,08,16,10,33,17.00
2011,08,16,10,34,17.10
2011,08,16,10,35,17.20
2011,08,16,10,36,17.20
2011,08,16,10,37,17.30
2011,08,16,10,38,17.30
2011,08,16,10,39,17.40
2011,08,16,10,40,17.50
2011,08,16,10,41,17.50
2011,08,16,10,42,17.50
2011,08,16,10,43,17.60
2011,08,16,10,44,17.60
2011,08,16,10,45,17.50
2011,08,16,10,46,17.50
2011,08,16,10,47,17.50
2011,08,16,10,48,17.60
2011,08,16,10,49,17.60
2011,08,16,10,50,17.70
2011,08,16,10,51,17.70
2011,08,16,10,52,17.80
2011,08,16,10,53,17.70
2011,08,16,10,54,17.70
2011,08,16,10,55,17.50
2011,08,16,10,56,17.50
2011,08,16,10,57,17.50
2011,08,16,10,58,17.60
2011,08,16,10,59,17.70
2011,08,16,11,00,17.70
2011,08,16,11,01,17.70
2011,08,16,11,02,17.80
2011,08,16,11,03,17.80
2011,08,16,11,04,17.90
2011,08,16,11,05,17.90
2011,08,16,11,06,17.90
2011,08,16,11,07,17.90
2011,08,16,11,08,17.90
2011,08,16,11,09,17.90
2011,08,16,11,10,17.90
2011,08,16,11,11,17.80
2011,08,16,11,12,17.80
2011,08,16,11,13,17.80
2011,08,16,11,14,17.90
2011,08,16,11,15,17.90
2011,08,16,11,16,18.10
2011,08,16,11,17,18.30
2011,08,16,11,18,18.30
2011,08,16,11,19,18.40
2011,08,16,11,20,18.40
2011,08,16,11,21,18.50
2011,08,16,11,22,18.60
2011,08,16,11,23,18.50
2011,08,16,11,24,18.50
2011,08,16,11,25,18.50
2011,08,16,11,26,18.50
2011,08,16,11,27,18.60
2011,08,16,11,28,18.70
2011,08,16,11,29,18.70
2011,08,16,11,30,18.60
2011,08,16,11,31,18.40
2011,08,16,11,32,18.30
2011,08,16,11,33,18.20
2011,08,16,11,34,18.00
2011,08,16,11,35,18.00
2011,08,16,11,36,18.10
2011,08,16,11,37,18.10
2011,08,16,11,38,18.00
2011,08,16,11,39,17.90
2011,08,16,11,40,17.90
2011,08,16,11,41,17.90
2011,08,16,11,42,17.80
2011,08,16,11,43,17.70
2011,08,16,11,44,17.80
2011,08,16,11,45,17.80
2011,08,16,11,46,17.70
2011,08,16,11,47,17.70
2011,08,16,11,48,17.70
2011,08,16,11,49,17.80
2011,08,16,11,50,17.90
2011,08,16,11,51,17.80
2011,08,16,11,52,17.80
2011,08,16,11,53,17.80
2011,08,16,11,54,17.80
2011,08,16,11,55,17.90
2011,08,16,11,56,18.00
2011,08,16,11,57,18.20
2011,08,16,11,58,18.20
2011,08,16,11,59,18.20
2011,08,16,12,00,18.20
2011,08,16,12,01,18.10
2011,08,16,12,02,17.90
2011,08,16,12,03,17.90
2011,08,16,12,04,17.80
2011,08,16,12,05,17.80
2011,08,16,12,06,17.70
2011,08,16,12,07,17.70
2011,08,16,12,08,17.70
2011,08,16,12,09,17.80
2011,08,16,12,10,17.90
2011,08,16,12,11,17.90
2011,08,16,12,12,18.00
2011,08,16,12,13,18.10
2011,08,16,12,14,18.20
2011,08,16,12,15,18.20
2011,08,16,12,16,18.20
2011,08,16,12,17,18.20
2011,08,16,12,18,18.10
2011,08,16,12,19,18.10
2011,08,16,12,20,18.10
2011,08,16,12,21,18.30
2011,08,16,12,22,18.30
2011,08,16,12,23,18.30
2011,08,16,12,24,18.20
2011,08,16,12,25,18.20
2011,08,16,12,26,18.30
2011,08,16,12,27,18.20
2011,08,16,12,28,18.20
2011,08,16,12,29,18.10
2011,08,16,12,30,18.00
2011,08,16,12,31,17.90
2011,08,16,12,32,17.90
2011,08,16,12,33,17.90
2011,08,16,12,34,17.90
2011,08,16,12,35,17.90
2011,08,16,12,36,17.90
2011,08,16,12,37,17.90
2011,08,16,12,38,17.90
2011,08,16,12,39,18.00
2011,08,16,12,40,18.10
2011,08,16,12,41,18.10
2011,08,16,12,42,18.10
2011,08,16,12,43,18.10
2011,08,16,12,44,18.10
2011,08,16,12,45,18.10
2011,08,16,12,46,17.90
2011,08,16,12,47,17.90
2011,08,16,12,48,17.80
2011,08,16,12,49,17.80
2011,08,16,12,50,17.90
2011,08,16,12,51,17.90
2011,08,16,12,52,18.20
2011,08,16,12,53,18.40
2011,08,16,12,54,18.50
2011,08,16,12,55,18.60
2011,08,16,12,56,18.70
2011,08,16,12,57,18.90
2011,08,16,12,58,18.90
2011,08,16,12,59,18.90
2011,08,16,13,00,18.90
2011,08,16,13,01,18.90
2011,08,16,13,02,18.80
2011,08,16,13,03,18.60
2011,08,16,13,04,18.60
2011,08,16,13,05,18.60
2011,08,16,13,06,18.60
2011,08,16,13,07,18.70
2011,08,16,13,08,18.70
2011,08,16,13,09,18.90
2011,08,16,13,10,18.90
2011,08,16,13,11,18.90
2011,08,16,13,12,19.00
2011,08,16,13,13,19.10
2011,08,16,13,14,19.10
2011,08,16,13,15,19.10
2011,08,16,13,16,19.10
2011,08,16,13,17,19.10
2011,08,16,13,18,19.10
2011,08,16,13,19,19.10
2011,08,16,13,20,19.10
2011,08,16,13,21,19.10
2011,08,16,13,22,18.90
2011,08,16,13,23,18.90
2011,08,16,13,24,19.00
2011,08,16,13,25,19.10
2011,08,16,13,26,19.10
2011,08,16,13,27,19.10
2011,08,16,13,28,19.00
2011,08,16,13,29,18.90
2011,08,16,13,30,18.90
2011,08,16,13,31,19.00
2011,08,16,13,32,19.10
2011,08,16,13,33,19.10
2011,08,16,13,34,19.30
2011,08,16,13,35,19.30
2011,08,16,13,36,19.30
2011,08,16,13,37,19.40
2011,08,16,13,38,19.40
2011,08,16,13,39,19.40
2011,08,16,13,40,19.60
2011,08,16,13,41,19.60
2011,08,16,13,42,19.80
2011,08,16,13,43,19.90
2011,08,16,13,44,20.00
2011,08,16,13,45,20.00
2011,08,16,13,46,20.00
2011,08,16,13,47,20.10
2011,08,16,13,48,20.00
2011,08,16,13,49,19.90
2011,08,16,13,50,19.90
2011,08,16,13,51,19.90
2011,08,16,13,52,19.90
2011,08,16,13,53,19.90
2011,08,16,13,54,19.80
2011,08,16,13,55,19.90
2011,08,16,13,56,19.90
2011,08,16,13,57,19.80
2011,08,16,13,58,19.80
2011,08,16,13,59,19.70
2011,08,16,14,00,19.70
2011,08,16,14,01,19.70
2011,08,16,14,02,19.70
2011,08,16,14,03,19.60
2011,08,16,14,04,19.60
2011,08,16,14,05,19.50
2011,08,16,14,06,19.50
2011,08,16,14,07,19.60
2011,08,16,14,08,19.60
2011,08,16,14,09,19.70
2011,08,16,14,10,19.70
2011,08,16,14,11,19.80
2011,08,16,14,12,19.90
2011,08,16,14,13,19.90
2011,08,16,14,14,19.90
2011,08,16,14,15,20.00
2011,08,16,14,16,20.10
2011,08,16,14,17,20.00
2011,08,16,14,18,19.90
2011,08,16,14,19,19.90
2011,08,16,14,20,19.90
2011,08,16,14,21,19.90
2011,08,16,14,22,19.90
2011,08,16,14,23,20.00
2011,08,16,14,24,19.90
2011,08,16,14,25,19.90
2011,08,16,14,26,19.90
2011,08,16,14,27,19.90
2011,08,16,14,28,20.00
2011,08,16,14,29,20.10
2011,08,16,14,30,20.10
2011,08,16,14,31,20.10
2011,08,16,14,32,20.00
2011,08,16,14,33,19.90
2011,08,16,14,34,19.90
2011,08,16,14,35,19.90
2011,08,16,14,36,19.90
2011,08,16,14,37,19.90
2011,08,16,14,38,19.90
2011,08,16,14,39,20.00
2011,08,16,14,40,20.00
2011,08,16,14,41,20.10
2011,08,16,14,42,20.20
2011,08,16,14,43,20.20
2011,08,16,14,44,20.20
2011,08,16,14,45,20.20
2011,08,16,14,46,20.30
2011,08,16,14,47,20.30
2011,08,16,14,48,20.20
2011,08,16,14,49,20.20
2011,08,16,14,50,20.20
2011,08,16,14,51,20.30
2011,08,16,14,52,20.30
2011,08,16,14,53,20.40
2011,08,16,14,54,20.50
2011,08,16,14,55,20.50
2011,08,16,14,56,20.50
2011,08,16,14,57,20.40
2011,08,16,14,58,20.30
2011,08,16,14,59,20.20
2011,08,16,15,00,20.10
2011,08,16,15,01,20.10
2011,08,16,15,02,20.20
2011,08,16,15,03,20.10
2011,08,16,15,04,20.20
2011,08,16,15,05,20.20
2011,08,16,15,06,20.20
2011,08,16,15,07,20.30
2011,08,16,15,08,20.30
2011,08,16,15,09,20.40
2011,08,16,15,10,20.50
2011,08,16,15,11,20.50
2011,08,16,15,12,20.50
2011,08,16,15,13,20.40
2011,08,16,15,14,20.50
2011,08,16,15,15,20.50
2011,08,16,15,16,20.50
2011,08,16,15,17,20.40
2011,08,16,15,18,20.30
2011,08,16,15,19,20.20
2011,08,16,15,20,20.30
2011,08,16,15,21,20.50
2011,08,16,15,22,20.60
2011,08,16,15,23,20.60
2011,08,16,15,24,20.60
2011,08,16,15,25,20.60
2011,08,16,15,26,20.60
2011,08,16,15,27,20.60
2011,08,16,15,28,20.70
2011,08,16,15,29,20.70
2011,08,16,15,30,20.80
2011,08,16,15,31,20.90
2011,08,16,15,32,21.00
2011,08,16,15,33,21.00
2011,08,16,15,34,21.00
2011,08,16,15,35,21.00
2011,08,16,15,36,21.00
2011,08,16,15,37,21.10
2011,08,16,15,38,21.20
2011,08,16,15,39,21.20
2011,08,16,15,40,21.20
2011,08,16,15,41,21.20
2011,08,16,15,42,21.30
2011,08,16,15,43,21.30
2011,08,16,15,44,21.30
2011,08,16,15,45,21.30
2011,08,16,15,46,21.30
2011,08,16,15,47,21.30
2011,08,16,15,48,21.50
2011,08,16,15,49,21.60
2011,08,16,15,50,21.50
2011,08,16,15,51,21.40
2011,08,16,15,52,21.50
2011,08,16,15,53,21.60
2011,08,16,15,54,21.80
2011,08,16,15,55,22.00
2011,08,16,15,56,22.20
2011,08,16,15,57,22.30
2011,08,16,15,58,22.40
2011,08,16,15,59,22.30
2011,08,16,16,00,22.20
2011,08,16,16,01,22.00
2011,08,16,16,02,21.90
2011,08,16,16,03,21.90
2011,08,16,16,04,21.80
2011,08,16,16,05,21.70
2011,08,16,16,06,21.80
2011,08,16,16,07,22.00
2011,08,16,16,08,22.20
2011,08,16,16,09,22.30
2011,08,16,16,10,22.40
2011,08,16,16,11,22.60
2011,08,16,16,12,22.60
2011,08,16,16,13,22.70
2011,08,16,16,14,22.80
2011,08,16,16,15,23.00
2011,08,16,16,16,23.10
2011,08,16,16,17,23.10
2011,08,16,16,18,23.10
2011,08,16,16,19,23.20
2011,08,16,16,20,23.30
2011,08,16,16,21,23.40
2011,08,16,16,22,23.50
2011,08,16,16,23,23.70
2011,08,16,16,24,23.70
2011,08,16,16,25,23.70
2011,08,16,16,26,23.80
2011,08,16,16,27,23.70
2011,08,16,16,28,23.70
2011,08,16,16,29,23.70
2011,08,16,16,30,23.60
2011,08,16,16,31,23.60
2011,08,16,16,32,23.70
2011,08,16,16,33,23.60
2011,08,16,16,34,23.40
2011,08,16,16,35,23.20
2011,08,16,16,36,22.80
2011,08,16,16,37,22.70
2011,08,16,16,38,22.70
2011,08,16,16,39,22.70
2011,08,16,16,40,22.70
2011,08,16,16,41,22.70
2011,08,16,16,42,22.80
2011,08,16,16,43,22.90
2011,08,16,16,44,23.10
2011,08,16,16,45,23.20
2011,08,16,16,46,23.30
2011,08,16,16,47,23.30
2011,08,16,16,48,23.50
2011,08,16,16,49,23.60
2011,08,16,16,50,23.70
2011,08,16,16,51,23.80
2011,08,16,16,52,23.80
2011,08,16,16,53,23.80
2011,08,16,16,54,23.80
2011,08,16,16,55,23.80
2011,08,16,16,56,23.70
2011,08,16,16,57,23.60
2011,08,16,16,58,23.30
2011,08,16,16,59,23.00
2011,08,16,17,00,22.90
2011,08,16,17,01,22.80
2011,08,16,17,02,22.70
2011,08,16,17,03,22.70
2011,08,16,17,04,22.70
2011,08,16,17,05,22.80
2011,08,16,17,06,22.90
2011,08,16,17,07,23.00
2011,08,16,17,08,23.10
2011,08,16,17,09,23.20
2011,08,16,17,10,23.20
2011,08,16,17,11,23.20
2011,08,16,17,12,23.30
2011,08,16,17,13,23.30
2011,08,16,17,14,23.20
2011,08,16,17,15,23.00
2011,08,16,17,16,22.80
2011,08,16,17,17,22.70
2011,08,16,17,18,22.70
2011,08,16,17,19,22.70
2011,08,16,17,20,22.70
2011,08,16,17,21,22.70
2011,08,16,17,22,22.80
2011,08,16,17,23,22.90
2011,08,16,17,24,23.00
2011,08,16,17,25,23.20
2011,08,16,17,26,23.20
2011,08,16,17,27,23.30
2011,08,16,17,28,23.40
2011,08,16,17,29,23.40
2011,08,16,17,30,23.40